Flag for Canada Weather past 2 weeks in Rae-Edzo, Northwest Territories, Canada

Now
26 °F

Chilly.


Feels Like: 16 °F
Forecast: 28 / 31 °F
Wind: 10 mph from Northwest

Location: Lac La Martre

Current Time: Oct 24, 2014 at 5:31:58 PM

Latest Report: Oct 24, 2014 at 5:00 PM


Visibility: N/A

Pressure: 29.75 "Hg

Humidity: 86%

Dew point: 22 °F

Location of Rae-EdzoLocation

Historic Weather in Rae-Edzo — Graph

°F

Rae-Edzo temperature yesterday

Maximum temperature yesterday: 34 °F (at 2:00 PM)
Minimum temperature yesterday: 28 °F (at 11:00 PM)
Average temperature yesterday: 32 °F

Past Weeks' High & Low Weather Summary

 TemperatureHumidityPressure
High42 °F (Oct 10, 4:00 PM)100% (Oct 17, 6:00 AM)30.18 "Hg (Oct 17, 6:00 AM)
Low22 °F (Oct 15, 8:00 AM)64% (Oct 15, 4:00 PM)29.20 "Hg (Oct 11, 9:00 AM)
Average31 °F91%29.70 "Hg
* Reported Oct 9 4:00 PM — Oct 24 4:00 PM, Rae-Edzo, Weather by CustomWeather, © 2014

Note: Actual official high and low records may vary slightly from our data, if they occured in-between our weather recording intervals... More about our weather records

Advertising

Rae-Edzo weather history for previous 24 hours

 ConditionsComfort  
Time TempWeatherWind HumidityBarometerVisibility
4:00 PM
Oct 24
27 °FChilly.10 mph85%29.73 "HgN/A
3:00 PM27 °FChilly.10 mph85%29.71 "HgN/A
2:00 PM28 °FChilly.10 mph86%29.69 "HgN/A
1:00 PM29 °FChilly.12 mph81%29.69 "HgN/A
12:00 PM28 °FChilly.12 mph89%29.67 "HgN/A
11:00 AM27 °FChilly.12 mph91%29.67 "HgN/A
10:00 AM27 °FChilly.9 mph91%29.66 "HgN/A
9:00 AM27 °FChilly.9 mph91%29.65 "HgN/A
8:00 AM27 °FChilly.9 mph91%29.65 "HgN/A
7:00 AM27 °FChilly.7 mph95%29.63 "HgN/A
6:00 AM27 °FChilly.7 mph91%29.63 "HgN/A
5:00 AM27 °FChilly.5 mph93%29.62 "HgN/A
4:00 AM28 °FChilly.3 mph95%29.62 "HgN/A
3:00 AM28 °FChilly.9 mph96%29.61 "HgN/A
2:00 AM28 °FChilly.10 mph94%29.61 "HgN/A
1:00 AM28 °FChilly.10 mph93%29.61 "HgN/A
12:00 AM28 °FChilly.9 mph93%29.60 "HgN/A
11:00 PM
Oct 23
28 °FChilly.9 mph95%29.60 "HgN/A
10:00 PM29 °FChilly.8 mph95%29.60 "HgN/A
9:00 PM29 °FChilly.10 mph94%29.59 "HgN/A
8:00 PM30 °FChilly.12 mph95%29.57 "HgN/A
7:00 PM31 °FChilly.9 mph97%29.57 "HgN/A
6:00 PM32 °FChilly.9 mph100%29.57 "HgN/A
5:00 PM31 °FChilly.9 mph100%29.55 "HgN/A
Weather by CustomWeather, © 2014

See weather overviewHow to use our weather pages